Total_Precipitation_Accumulation
2.05 2.20 3.37 3.51 3.02 2.82 2.86 2.70 2.64 2.59 2.49 2.42 2.29 2.19 2.10 1.91 1.69 1.57 1.40 1.32 1.28 1.34 1.32 1.29 1.30 1.20 1.09 1.01 1.04 1.16 1.18 1.37 1.44 1.38 1.45 1.51 1.53 1.70 1.86 2.11 2.38 2.56 2.38
1.76 2.16 3.34 3.40 2.92 2.56 2.56 2.52 2.54 2.49 2.41 2.27 2.14 2.17 1.98 1.86 1.72 1.55 1.36 1.31 1.24 1.33 1.43 1.47 1.37 1.22 1.06 1.00 1.06 1.19 1.20 1.29 1.44 1.51 1.74 1.92 1.89 1.92 1.78 1.95 2.26 2.55 2.41
1.64 1.89 2.57 3.07 2.81 2.43 2.29 2.36 2.42 2.34 2.26 2.19 2.12 2.18 1.84 1.72 1.71 1.61 1.48 1.44 1.40 1.42 1.43 1.50 1.51 1.37 1.19 1.11 1.18 1.29 1.34 1.35 1.37 1.47 2.05 2.83 2.25 2.05 2.15 2.25 2.44 2.33 2.36
1.59 1.67 2.05 2.80 2.66 2.34 2.26 2.36 2.37 2.30 2.25 2.24 2.16 2.00 1.71 1.67 1.69 1.73 1.75 1.65 1.51 1.48 1.55 1.56 1.57 1.47 1.34 1.24 1.25 1.31 1.45 1.47 1.54 1.56 1.98 2.64 2.56 2.29 2.26 2.37 2.51 2.28 2.26
1.49 1.62 2.18 2.62 2.46 2.28 2.10 2.16 2.23 2.21 2.17 2.22 2.15 1.86 1.65 1.54 1.57 1.64 1.74 1.70 1.60 1.56 1.51 1.49 1.42 1.37 1.37 1.28 1.25 1.27 1.35 1.40 1.59 1.46 1.74 2.33 2.79 2.42 2.03 2.20 2.38 2.29 2.25
1.38 1.51 1.92 2.33 2.29 2.17 1.99 2.01 1.88 1.80 1.85 1.99 1.93 1.75 1.58 1.60 1.60 1.65 1.73 1.67 1.61 1.53 1.43 1.39 1.35 1.29 1.24 1.17 1.16 1.20 1.29 1.35 1.36 1.48 1.85 2.38 2.70 2.38 1.96 2.06 2.33 2.45 2.48
1.34 1.32 1.55 1.93 2.02 2.00 1.98 1.92 1.84 1.67 1.73 1.77 1.71 1.64 1.53 1.57 1.63 1.64 1.54 1.38 1.36 1.38 1.34 1.38 1.38 1.25 1.16 1.11 1.11 1.13 1.23 1.16 1.15 1.50 1.84 2.30 2.33 2.18 1.87 2.01 2.41 2.66 2.66
1.32 1.22 1.30 1.61 1.71 1.66 1.68 1.91 1.93 1.64 1.68 1.66 1.55 1.52 1.53 1.53 1.55 1.48 1.31 1.26 1.29 1.38 1.41 1.32 1.26 1.19 1.17 1.16 1.18 1.19 1.27 0.99 0.89 1.20 1.57 2.16 2.49 2.30 1.92 1.94 2.26 2.50 2.69
1.41 1.26 1.19 1.17 1.27 1.44 1.67 1.71 1.65 1.66 1.74 1.69 1.49 1.45 1.49 1.35 1.25 1.23 1.26 1.34 1.33 1.39 1.37 1.27 1.18 1.14 1.20 1.26 1.27 1.24 1.20 1.01 0.92 1.20 1.36 1.99 2.52 2.39 2.03 1.91 2.07 2.22 2.44
1.26 1.15 1.03 0.95 1.01 1.12 1.32 1.50 1.52 1.51 1.58 1.57 1.49 1.54 1.55 1.34 1.19 1.25 1.27 1.46 1.45 1.40 1.42 1.33 1.21 1.16 1.20 1.28 1.21 1.09 0.99 0.83 0.84 1.03 1.49 1.91 2.65 2.56 2.12 1.87 1.84 1.88 1.96
1.10 1.03 0.95 0.85 0.88 0.96 1.04 1.14 1.32 1.34 1.35 1.27 1.17 1.25 1.17 0.97 0.94 1.06 1.12 1.45 1.58 1.63 1.56 1.46 1.38 1.27 1.17 1.15 1.10 0.95 0.76 0.69 0.86 1.04 1.45 2.07 2.57 2.51 2.10 1.81 1.78 1.67 1.63
1.12 1.01 0.91 0.89 0.86 0.85 0.84 1.11 1.29 1.11 1.03 0.93 0.95 0.92 0.91 0.95 1.01 0.90 1.04 1.34 1.32 1.37 1.40 1.37 1.34 1.18 0.94 0.79 0.81 0.78 0.66 0.74 0.82 0.93 1.37 2.16 2.50 2.51 2.20 1.85 1.67 1.57 1.50
1.09 0.98 0.85 0.88 0.82 0.75 0.84 1.00 1.18 1.21 1.19 1.15 0.99 0.98 0.95 0.88 0.84 0.75 0.78 0.90 0.92 0.99 0.99 1.08 1.10 0.92 0.76 0.72 0.72 0.67 0.66 0.73 0.81 0.91 1.40 2.23 2.58 2.56 2.37 2.02 1.80 1.64 1.60
0.99 1.01 0.85 0.82 0.75 0.66 0.61 0.69 0.85 0.90 0.91 0.93 0.94 0.87 0.88 0.94 0.92 0.82 0.83 0.89 0.92 0.90 1.00 1.05 1.06 0.95 0.79 0.66 0.64 0.68 0.74 0.77 0.86 1.07 1.44 2.05 2.50 2.61 2.63 2.31 2.07 1.88 1.76
1.02 0.98 0.92 0.86 0.80 0.81 0.77 0.69 0.66 0.69 0.76 0.82 0.90 0.82 0.76 0.83 0.93 0.93 0.90 0.96 0.94 0.95 1.01 0.98 0.86 0.87 0.83 0.71 0.70 0.73 0.80 0.82 0.94 1.06 1.28 1.70 2.30 2.88 3.04 2.84 2.43 2.15 2.06
0.94 1.01 1.00 0.91 0.88 0.81 0.77 0.77 0.76 0.72 0.75 0.78 0.84 0.77 0.70 0.72 0.77 0.88 0.90 0.98 0.94 0.98 1.06 0.94 0.88 0.90 0.90 0.80 0.76 0.78 0.79 0.82 0.90 1.04 1.18 1.44 1.80 2.41 3.02 3.17 2.88 2.53 2.29
0.84 0.95 1.02 0.99 0.98 0.88 0.82 0.82 0.83 0.80 0.75 0.75 0.79 0.70 0.65 0.71 0.72 0.84 0.93 0.97 0.97 0.99 1.00 1.02 1.02 0.97 0.90 0.84 0.85 0.84 0.80 0.83 0.99 1.11 1.16 1.32 1.39 1.51 2.14 2.87 3.16 3.01 2.74
0.89 0.88 0.93 0.91 0.95 0.97 0.95 0.93 0.91 0.85 0.83 0.85 0.85 0.78 0.72 0.71 0.76 0.99 1.07 0.97 1.03 1.13 1.17 1.21 1.17 1.09 1.02 1.01 1.04 1.02 0.93 0.97 1.13 1.22 1.16 1.13 1.19 1.13 1.34 1.78 2.22 2.55 2.86
0.84 0.82 0.83 0.83 1.00 1.02 0.98 1.04 1.04 1.00 1.05 1.08 1.06 1.01 0.92 0.87 0.97 1.16 1.24 1.14 1.12 1.28 1.28 1.18 1.23 1.29 1.24 1.28 1.22 1.24 1.20 1.20 1.20 1.13 1.11 1.17 1.22 1.22 1.27 1.21 1.40 1.69 2.29
0.73 0.72 0.75 0.80 0.93 1.02 1.14 1.21 1.27 1.27 1.28 1.41 1.46 1.41 1.21 1.15 1.19 1.35 1.48 1.45 1.39 1.53 1.56 1.45 1.58 1.65 1.56 1.61 1.49 1.41 1.37 1.33 1.27 1.24 1.22 1.28 1.40 1.31 1.34 1.27 1.23 1.08 1.39
0.62 0.60 0.66 0.80 0.94 1.08 1.21 1.33 1.55 1.70 1.80 1.80 1.79 1.83 1.73 1.52 1.58 1.71 1.70 1.93 1.99 1.98 2.02 1.99 2.16 2.23 1.95 1.80 2.16 2.12 1.72 1.40 1.26 1.33 1.41 1.46 1.58 1.60 1.56 1.50 1.42 1.20 1.10
0.54 0.57 0.63 0.76 0.98 1.18 1.38 1.55 1.72 2.04 2.19 2.18 2.24 2.15 2.07 1.94 1.94 1.86 1.95 2.20 2.26 2.38 2.48 2.34 2.52 2.64 2.33 2.03 2.49 2.99 2.58 2.10 1.45 1.21 1.32 1.49 1.67 1.71 1.65 1.52 1.50 1.44 1.34
0.42 0.49 0.58 0.69 0.89 1.17 1.46 1.68 1.87 2.10 2.35 2.46 2.35 2.30 2.29 2.33 2.37 2.23 2.18 2.32 2.36 2.47 2.70 2.74 2.70 2.84 2.80 2.44 2.41 2.99 2.99 2.59 2.13 1.56 1.38 1.46 1.65 1.78 1.83 1.80 1.63 1.61 1.51
0.43 0.49 0.60 0.69 0.82 1.01 1.26 1.57 1.83 2.09 2.40 2.46 2.41 2.39 2.42 2.50 2.54 2.47 2.41 2.48 2.52 2.53 2.65 2.71 2.70 2.98 3.21 2.97 2.66 2.43 2.40 2.43 2.46 2.08 1.65 1.51 1.65 1.78 1.93 1.85 1.87 1.92 1.86
0.48 0.54 0.68 0.79 0.87 1.02 1.27 1.57 1.86 2.06 2.24 2.42 2.42 2.32 2.25 2.33 2.30 2.22 2.32 2.48 2.52 2.54 2.55 2.72 2.84 3.09 3.15 3.07 2.95 2.78 2.60 2.43 2.06 2.14 2.06 1.80 1.74 1.68 1.82 1.99 2.08 2.11 2.05
0.56 0.66 0.80 0.91 1.05 1.17 1.26 1.36 1.49 1.69 1.98 2.13 2.27 2.26 2.24 2.25 2.14 2.03 2.12 2.22 2.33 2.40 2.38 2.43 2.60 2.79 3.04 3.18 3.09 2.90 2.84 2.77 2.54 2.36 2.07 1.91 1.99 1.86 1.76 1.79 1.91 2.01 2.14